[[{"header":{"parameterUnit":"m.s-1","parameterCategory":1,"la1":30.2991,"la2":30.254,"lo1":-89.0895,"lo2":-89.0444,"dy":0.0017,"dx":0.0017,"nx":28,"ny":28,"refTime":"2024-06-23T09:00:00:Z","depth":0,"parameterNumber":2,"parameterNumberName":"U-component_of_WINDS"},"data":[0,0,0,0,0,0,0,0,0,0,0,0,0,0,0,0,0,0,0,0,0,0,0,0,0,0,0,0,0,0,0,0,0,0,0,0,0,0,0,0,0,0,0,0,0,0,0,0,0,0,0,0,0,0,0,0,0,0,0.9105,0.9106,0,0.9184,0.9185,0.9186,0.9187,0.9186,0.9186,0.9185,0.9266,0.9269,0.9272,0,0,0,0,0,0,0,0,0,0,0,0,0,0.8953,0.8956,0.9105,0.9106,0.9107,0.9184,0.9185,0.9186,0.9188,0.9186,0.9185,0.9184,0.9265,0.9269,0.9272,0,0,0,0,0,0,0,0,0,0,0,0,0,0.9024,0.8957,0.9105,0.9117,0.9119,0.9184,0.9185,0.9187,0.9188,0.9186,0.9185,0.9184,0.9264,0.9268,0.9273,0.9332,0,0,0.9287,0.9289,0,0,0,0,0,0,0,0,0.902,0.903,0.9114,0.9116,0.9118,0.9175,0.9162,0.9235,0.9188,0.9162,0.9185,0.9183,0.9237,0.9244,0.9262,0.9335,0.9339,0.9288,0.929,0.9292,0.9294,0,0,0,0,0,0,0,0.9015,0.9027,0.9136,0.9115,0.9118,0.9118,0.9126,0.9176,0.9207,0.9164,0.9164,0.9174,0.9238,0.9257,0.9264,0.934,0.9287,0.9292,0.9294,0.9296,0.9464,0.9465,0,0,0,0,0,0,0.9008,0.9022,0.9134,0.9139,0.9065,0.9122,0.9131,0.9158,0.9206,0.9212,0.9175,0.9173,0.925,0.9258,0.9267,0.9337,0.9292,0.9297,0.9299,0.9462,0.9464,0.9466,0,0,0,0,0,0,0.9005,0.9018,0.9131,0.9081,0.9095,0.9126,0.9156,0.916,0.918,0.9214,0.922,0.9189,0.9249,0.926,0.9315,0.934,0.9299,0.9303,0.946,0.9462,0.9465,0.9479,0,0,0,0,0,0,0.9001,0.9017,0.904,0.9081,0.9098,0.9178,0.9158,0.9163,0.9188,0.9187,0.9229,0.9235,0.9249,0.9308,0.9319,0.9345,0.9307,0.9458,0.9461,0.9464,0.9476,0.9481,0.9486,0,0,0,0,0,0.8995,0.9041,0.9041,0.9055,0.9127,0.918,0.9189,0.9204,0.919,0.9213,0.9235,0.9234,0.9335,0.9314,0.9327,0.9354,0.9456,0.946,0.9464,0.9474,0.948,0.9486,0,0,0,0,0,0,0.9003,0.9047,0.9047,0.9108,0.914,0.918,0.9209,0.9211,0.9247,0.9245,0.9262,0.9271,0.9326,0.9346,0.9321,0.9412,0.9394,0.9401,0.9397,0.9404,0.9408,0.9402,0.9311,0,0,0,0,0,0.9011,0.905,0.9087,0.9137,0.9153,0.9178,0.9202,0.921,0.9244,0.9258,0.9284,0.9316,0.9355,0.9381,0.9419,0.9479,0.9488,0.9505,0.9509,0.9513,0.9518,0.955,0.9558,0.9478,0.9478,0.9478,0,0,0.903,0.9059,0.9082,0.9139,0.9165,0.9204,0.919,0.9232,0.9261,0.9264,0.9317,0.9337,0.9375,0.9432,0.9458,0.945,0.9542,0.9518,0.9521,0.9524,0.9555,0.9562,0.9569,0.948,0.948,0.948,0,0,0.9083,0.9109,0.9153,0.9179,0.9218,0.9234,0.9244,0.9284,0.9297,0.935,0.9352,0.9387,0.9455,0.9481,0.9503,0.9564,0.9564,0.9576,0.9601,0.9632,0.9638,0.9644,0.9664,0.9671,0.9581,0.9581,0.9581,0,0.9101,0.916,0.9176,0.9218,0.9242,0.9246,0.929,0.9314,0.9363,0.938,0.937,0.9453,0.9479,0.9541,0.9556,0.9574,0.9586,0.9571,0.9636,0.9642,0.9647,0.9667,0.9675,0.9582,0.9582,0.9582,0.9582,0,0.918,0.9221,0.9252,0.9298,0.9326,0.9369,0.939,0.9416,0.9422,0.9439,0.9492,0.9523,0.9567,0.9582,0.9589,0.9645,0.9639,0.9632,0.9614,0.9656,0.9674,0.9682,0.9584,0.9584,0.9583,0.9583,0,0,0.924,0.9294,0.9305,0.9325,0.9368,0.94,0.9442,0.9484,0.9506,0.9539,0.9574,0.9631,0.9624,0.9649,0.9659,0.9686,0.973,0.9676,0.9677,0.9684,0.9793,0.9797,0.9805,0.973,0.9732,0.9733,0.9789,0,0.9297,0.9373,0.9387,0.9452,0.949,0.9493,0.953,0.9559,0.9576,0.961,0.9629,0.9667,0.9657,0.9672,0.9699,0.9719,0.9752,0.9715,0.9763,0.9764,0.9752,0.9815,0.982,0.9871,0.9797,0.9798,0.9799,0,0.9374,0.9408,0.9478,0.9513,0.953,0.9562,0.9601,0.9634,0.9667,0.9677,0.9704,0.971,0.9753,0.9733,0.9792,0.9767,0.9787,0.98,0.9802,0.9807,0.9783,0.982,0.9888,0.9895,0.9811,0.981,0.9809,0,0.9409,0.9473,0.9523,0.954,0.9584,0.9606,0.9625,0.9657,0.9681,0.9715,0.973,0.9769,0.979,0.9819,0.9835,0.9819,0.9892,0.9874,0.9901,0.9901,0.9916,0.9915,0.9987,0.9931,0.9931,0.993,0.993,0,0.9471,0.9513,0.9539,0.9569,0.9615,0.9631,0.9676,0.9695,0.9723,0.9756,0.9761,0.9792,0.9812,0.9846,0.9858,0.9904,0.9914,0.9923,0.9926,0.9922,0.9921,0.9935,0.9931,0.9933,0.9932,0.9932,0.9931,0,0.9518,0.9538,0.9591,0.9627,0.9637,0.967,0.9701,0.973,0.9746,0.9788,0.9798,0.9824,0.9864,0.9882,0.9932,0.994,0.9992,0.9993,0.9981,0.9982,1.0007,1.0004,1.0091,1.0102,1.0039,1.004,1.004,0,0.9556,0.9588,0.9627,0.965,0.9669,0.9706,0.9729,0.9746,0.977,0.9809,0.9833,0.9873,0.9905,0.9968,0.9991,1.0029,1.003,1.0057,1.0035,1.003,1.0029,1.0026,1.0029,1.0061,1.0062,1.0062,1.0063,0,0.962,0.9627,0.9662,0.9699,0.9728,0.9758,0.9788,0.9806,0.9826,0.9854,0.9894,0.9919,0.9969,1.0008,1.0046,1.0065,1.0067,1.0069,1.0077,1.0074,1.0065,1.0068,0.999,1.0067,1.0067,1.0066,1.0066,1.0066,0.9663,0.9691,0.9722,0.976,0.9784,0.9811,0.9839,0.9859,0.9893,0.9934,0.9942,0.9984,1.0015,1.0067,1.0087,1.012,1.0114,1.0126,1.0129,1.0131,1.0132,1.006,1.0127,1.0127,1.0127,1.0127,1.0127,0,0.9726,0.9746,0.978,0.9821,0.9851,0.985,0.9882,0.9907,0.9944,0.9972,1.0004,1.0049,1.0087,1.0112,1.015,1.0171,1.0173,1.018,1.0179,1.0183,1.0136,1.0125,1.0178,1.0178,1.0178,1.0178,1.0178,1.0178,0.9762,0.9809,0.982,0.9878,0.9898,0.9939,0.9957,0.9982,1.0005,1.0055,1.0086,1.0102,1.0129,1.0169,1.0203,1.0209,1.0222,1.023,1.0236,1.0192,1.0186,1.0181,1.017,1.0233,1.0233,1.028,1.028,1.028]},{"header":{"parameterUnit":"m.s-1","parameterCategory":1,"la1":30.2991,"la2":30.254,"lo1":-89.0895,"lo2":-89.0444,"dy":0.0017,"dx":0.0017,"nx":28,"ny":28,"refTime":"2024-06-23T09:00:00:Z","depth":0,"parameterNumber":3,"parameterNumberName":"V-component_of_WINDS"},"data":[0,0,0,0,0,0,0,0,0,0,0,0,0,0,0,0,0,0,0,0,0,0,0,0,0,0,0,0,0,0,0,0,0,0,0,0,0,0,0,0,0,0,0,0,0,0,0,0,0,0,0,0,0,0,0,0,0,0,4.7947,4.7947,0,4.7956,4.7956,4.7956,4.7861,4.7858,4.7856,4.7853,4.786,4.7862,4.7865,0,0,0,0,0,0,0,0,0,0,0,0,0,4.7845,4.7848,4.7947,4.7947,4.7947,4.7956,4.7956,4.7956,4.7861,4.7858,4.7855,4.7852,4.7859,4.7862,4.7865,0,0,0,0,0,0,0,0,0,0,0,0,0,4.7875,4.7848,4.7947,4.7901,4.7897,4.7956,4.7956,4.7956,4.7862,4.7858,4.7854,4.7851,4.7858,4.7862,4.7866,4.7968,0,0,4.7878,4.7879,0,0,0,0,0,0,0,0,4.7874,4.7879,4.7908,4.7904,4.79,4.7903,4.7922,4.796,4.7863,4.7875,4.7853,4.7849,4.7877,4.7879,4.789,4.7968,4.7968,4.7878,4.788,4.7882,4.7883,0,0,0,0,0,0,0,4.7872,4.7878,4.795,4.7908,4.7904,4.7879,4.7879,4.7929,4.7898,4.7874,4.7867,4.7869,4.7874,4.7886,4.7889,4.7969,4.7878,4.7881,4.7884,4.7885,4.813,4.8134,0,0,0,0,0,0,4.7876,4.7877,4.795,4.795,4.7877,4.7884,4.7884,4.7906,4.7897,4.7892,4.7873,4.7865,4.7881,4.7885,4.7889,4.8007,4.7882,4.7886,4.7888,4.8126,4.8131,4.8135,0,0,0,0,0,0,4.7874,4.7884,4.795,4.7912,4.7918,4.789,4.7916,4.7908,4.792,4.7896,4.789,4.7891,4.7878,4.7883,4.7949,4.8006,4.7887,4.7891,4.8121,4.8127,4.8133,4.8245,0,0,0,0,0,0,4.7872,4.7884,4.7923,4.7914,4.7921,4.8011,4.7919,4.7911,4.7927,4.7917,4.7911,4.7907,4.7876,4.7943,4.7953,4.8009,4.7894,4.8116,4.8124,4.8131,4.8236,4.8254,4.827,0,0,0,0,0,4.7869,4.7954,4.7926,4.7935,4.797,4.8014,4.8018,4.7981,4.7932,4.7971,4.7955,4.7907,4.7998,4.7951,4.796,4.8019,4.8112,4.8121,4.813,4.8228,4.825,4.8269,0,0,0,0,0,0,4.797,4.7952,4.792,4.8005,4.8012,4.7998,4.8046,4.8006,4.8027,4.8016,4.7969,4.7969,4.8042,4.8037,4.7984,4.8117,4.8046,4.8058,4.8117,4.8138,4.8155,4.8154,4.7897,0,0,0,0,0,4.8003,4.8041,4.8023,4.8099,4.8105,4.8075,4.8093,4.8064,4.8069,4.8071,4.8061,4.8067,4.8096,4.8117,4.8143,4.8235,4.8231,4.8279,4.8296,4.831,4.8321,4.8368,4.8389,4.8166,4.8166,4.8166,0,0,4.807,4.8064,4.8092,4.812,4.8122,4.8161,4.8078,4.8124,4.8153,4.8078,4.8139,4.8132,4.8135,4.8214,4.8248,4.8212,4.8382,4.8322,4.8334,4.8336,4.838,4.8401,4.8419,4.8172,4.8171,4.817,0,0,4.8212,4.8213,4.8276,4.828,4.8284,4.8263,4.8279,4.8271,4.8263,4.8324,4.8268,4.8301,4.8354,4.8358,4.8367,4.8511,4.8467,4.8521,4.8609,4.8655,4.8673,4.8688,4.8738,4.8757,4.8531,4.8532,4.8532,0,4.8295,4.8354,4.8314,4.8363,4.8377,4.8311,4.8374,4.8379,4.8392,4.8402,4.8362,4.8426,4.8423,4.8502,4.8537,4.8547,4.8562,4.8521,4.8674,4.8688,4.8702,4.875,4.8769,4.8538,4.8537,4.8537,4.8536,0,4.8455,4.8496,4.8547,4.8561,4.858,4.8636,4.8603,4.8627,4.8596,4.858,4.8642,4.8637,4.866,4.8677,4.8647,4.8751,4.8728,4.8682,4.861,4.8731,4.8774,4.8792,4.8547,4.8545,4.8543,4.8542,0,0,4.8662,4.8653,4.8672,4.8677,4.8676,4.8707,4.8759,4.8783,4.8804,4.8814,4.8857,4.8902,4.8859,4.887,4.884,4.888,4.8993,4.8828,4.8828,4.8859,4.9106,4.9141,4.9163,4.8964,4.8967,4.897,4.9106,0,4.88,4.889,4.8855,4.8947,4.8984,4.8922,4.8968,4.8972,4.8958,4.8986,4.897,4.9003,4.8944,4.895,4.8987,4.8972,4.9042,4.8961,4.9002,4.9004,4.9003,4.9186,4.9223,4.9351,4.9123,4.9125,4.9128,0,4.8973,4.8991,4.9088,4.9079,4.9094,4.9136,4.9154,4.9182,4.9185,4.9172,4.9184,4.9144,4.9194,4.9123,4.9191,4.9136,4.9151,4.9146,4.915,4.9152,4.9073,4.9192,4.9391,4.941,4.9154,4.9152,4.915,0,4.9114,4.9162,4.9225,4.9232,4.9224,4.9255,4.9253,4.9252,4.9268,4.9283,4.9293,4.9315,4.9326,4.9343,4.931,4.9262,4.9382,4.9309,4.9372,4.9373,4.94,4.9398,4.9604,4.941,4.941,4.941,4.9409,0,4.9271,4.9332,4.9288,4.9327,4.9393,4.9352,4.9418,4.9409,4.9409,4.9444,4.9392,4.9426,4.9381,4.9411,4.9385,4.9445,4.9451,4.9441,4.9433,4.9445,4.9446,4.9453,4.9444,4.9415,4.9414,4.9413,4.9412,0,4.9439,4.9412,4.9477,4.9464,4.9463,4.9512,4.95,4.9535,4.9517,4.9563,4.9571,4.9543,4.9575,4.9544,4.9575,4.9558,4.9637,4.9617,4.9636,4.963,4.9695,4.9689,4.9912,4.9938,4.9729,4.9731,4.9733,0,4.9541,4.9587,4.9579,4.9599,4.9601,4.9634,4.965,4.9611,4.9629,4.9636,4.967,4.9698,4.9718,4.9772,4.9754,4.9776,4.9756,4.9832,4.9759,4.9769,4.9756,4.9754,4.9758,4.9847,4.9849,4.9852,4.9853,0,4.9725,4.9709,4.9735,4.9756,4.9777,4.9791,4.9801,4.9821,4.978,4.9804,4.9836,4.9852,4.9883,4.9911,4.9928,4.9925,4.9882,4.9876,4.9892,4.9905,4.9914,4.9909,4.9676,4.9871,4.987,4.9868,4.9867,4.9867,4.9862,4.99,4.99,4.993,4.9933,4.9944,4.9976,4.9962,4.9989,5.0011,4.9986,5.0026,5.0026,5.0045,5.0047,5.0076,5.0044,5.0067,5.0073,5.0079,5.0088,4.991,5.008,5.0079,5.0078,5.0078,5.0078,0,5.0043,5.004,5.0068,5.0084,5.0107,5.0066,5.0075,5.0097,5.0132,5.0137,5.0158,5.0194,5.0221,5.0205,5.0228,5.0255,5.0236,5.0262,5.0259,5.0259,5.0116,5.01,5.0277,5.0277,5.0277,5.0277,5.0277,5.0277,5.0139,5.02,5.0184,5.0245,5.0241,5.028,5.0289,5.0298,5.0301,5.0345,5.0367,5.0356,5.0352,5.0374,5.0396,5.0391,5.0401,5.0435,5.0422,5.0289,5.0269,5.0251,5.0235,5.0438,5.0438,5.0563,5.0564,5.0565]}]]